一网星座-0316星 (ONEWEB-0316 )

导读

ONEWEB-0316是英国卫星互联网运营商OneWeb(一网)旗下的低轨通信卫星,于2021年8月21日发射入轨,是OneWeb一期全球卫星星座组网的组成部分。该卫星运行在近地轨道,依托OneWeb星座的Ku/Ka波段通信架构,为全球偏远地区提供互联网接入服务,助力一网构建覆盖全球的低轨卫星通信网络,推动空天地一体化网络基础设施建设。

基本信息
目录编号:
49102
目录名称:
ONEWEB-0316
国际标识:
2021-075AD
轨道中心:
EARTH
卫星名称:
一网星座-0316星
卫星全名:
一网星座-0316星 (ONEWEB-0316 )
卫星状态:
在轨 (已飞行1847 天)
发射日期:
2021-08-21 UTC
国别 :
英国 (GB)
星等 :
--
该卫星已列入 空间交会检测服务 Space Conjunction Data Service (SCDS) ,当前飞行风险评估等级: 无高风险
轨道信息
数据来源 国际轨道数据 AOE轨道数据
星历时间 2026-09-11T11:02:55+0800
11小时前
查看轨道信息
2026-09-07T02:00:00+0800
4天前
查看轨道信息
半长轴 7567.885km 7567.9km
偏心率 0.0001808 0.0001798
轨道倾角 87.918° 87.919°
近地点辐角 97.546° 97.438°
升交点赤经 318.382° 319.252°
平近点角 262.588° 15.682°
近地点 1188.379km 1188.402km
远地点 1191.117km 1191.124km
周期 109.200分钟 109.200分钟
每日圈数 13.186849 13.18681
详细信息
平衡模式:
三轴稳定
覆盖范围:
全球
运营商:
一网卫星公司
运营商所在国:
英国
制造商(研发单位):
一网卫星公司
制造商所在国:
英国
使用方式:
暂无
卫星简介
OneWeb卫星网络由648颗重约125公斤的微型卫星组成,运行在1200公里的轨道上。 每颗卫星都能够提供至少每秒8千兆位的吞吐量,以使用其高吞吐量的Ku频段有效载荷为家庭和移动平台提供互联网接入。该卫星仍在工作。
2D轨道图
3D轨道图
轨道高度分析图
轨道倾角分析图
轨道综合分析图
查看轨道综合分析图
与全量物体交会距离演化趋势
与全量物体交会风险概率演化趋势